Location: B?dimalle
(17.1788°N, 80.5377°E)
Time: 01:01:55
(UTC+00:00)

Injun/Solrad 3 - Pass Details

Date: 23 February 2026
Orbit: 872 x 984 km, 66.8° (Epoch: 7 March)

Event Time Altitude Azimuth Distance (km) Brightness Sun altitude
Rises 14:06:54 0° 346° (NNW) 3,619 11.1 -20.8°
Reaches altitude 10° 14:09:30 10° 352° (N) 2,688 10.4 -21.4°
Maximum altitude 14:15:37 52° 67° (ENE) 1,189 8.0 -22.9°
Enters shadow 14:16:51 46° 103° (ESE) 1,288 8.2 -23.2°
